Location: *
(32.8140°S, 174.6161°E)
Time: 08:06:37
(UTC+00:00)

Atlas Centaur 2 - Pass Details

Date: 10 December 2019
Orbit: 459 x 1310 km, 30.4° (Epoch: 28 January)

Event Time Altitude Azimuth Distance (km) Brightness Sun altitude
Exits shadow 15:14:47 34° 288° (WNW) 1,275 2.7 -19.6°
Maximum altitude 15:17:09 68° 0° (N) 782 1.8 -19.2°
Drops below altitude 10° 15:21:45 10° 83° (E) 1,987 4.7 -18.5°
Sets 15:23:50 0° 85° (E) 2,791 5.5 -18.2°
